Regional Weather Roundup
Issued by NWS

Home | Current Version | Previous Version | Text Only | Print | Product List | Glossary Off
Versions: 1 2 3 4 5 6 7 8 9 10 11 12 13 14 15 16 17 18 19 20 21 22 23 24 25 26 27 28 29 30 31 32 33 34 35 36 37 38 39 40 41 42 43 44 45 46 47 48 49 50

000
ASUS43 KOAX 311810
RWRNE

WEATHER ROUNDUP FOR NEBRASKA
NATIONAL WEATHER SERVICE OMAHA NE
100 PM CDT FRI JUL 31 2015

NOTES: SATELLITE DATA IS BEING USED TO AUGMENT CLOUD COVER ABOVE
       12000 FEET.
       "FAIR" INDICATES FEW OR NO CLOUDS BELOW 12,000 FEET WITH NO
       SIGNIFICANT WEATHER AND/OR OBSTRUCTIONS TO VISIBILITY.

  * THESE STATIONS DO NOT REPORT WEATHER SUCH AS RAIN...SNOW OR FOG.

NEZ001>004-019>022-054>056-311900-
NEBRASKA PANHANDLE

CITY           SKY/WX    TMP DP  RH WIND       PRES   REMARKS
SCOTTSBLUFF    SUNNY     84  63  49 SE8       30.25F
6HR MIN TEMP:  59; 6HR MAX TEMP:  84;

ALLIANCE       SUNNY     86  58  38 VRB3      30.25F
6HR MIN TEMP:  51; 6HR MAX TEMP:  86;

CHADRON        SUNNY     89  56  32 VRB6      30.20F
6HR MIN TEMP:  52; 6HR MAX TEMP:  90;

KIMBALL        SUNNY     84  54  34 S10       30.30F
SIDNEY         SUNNY     86  59  39 S9        30.29F
6HR MIN TEMP:  56; 6HR MAX TEMP:  86;

$$

NEZ057>060-069>072-079>082-311900-
SOUTHWEST NEBRASKA

CITY           SKY/WX    TMP DP  RH WIND       PRES   REMARKS
NORTH PLATTE   SUNNY     89  62  40 W3        30.19F
6HR MIN TEMP:  61; 6HR MAX TEMP:  90;

IMPERIAL       SUNNY     88  56  33 VRB5      30.23F
6HR MIN TEMP:  58; 6HR MAX TEMP:  89;

LEXINGTON      SUNNY     88  65  47 SW6       30.19F HX  90
MCCOOK         MOSUNNY   90  63  40 W10       30.19F HX  91
6HR MIN TEMP:  64; 6HR MAX TEMP:  90;

OGALLALA       SUNNY     84  62  47 E5        30.24S
$$

NEZ005>010-023>029-035>040-094-311900-
NORTH CENTRAL NEBRASKA

CITY           SKY/WX    TMP DP  RH WIND       PRES   REMARKS
AINSWORTH      SUNNY     87  65  47 NE5       30.18F
BROKEN BOW     SUNNY     91  67  44 SW8       30.18F HX  94
6HR MIN TEMP:  61; 6HR MAX TEMP:  91;

O`NEILL        SUNNY     86  67  52 CALM      30.16F
ORD            SUNNY     90  66  45 VRB6      30.14F HX  92
6HR MIN TEMP:  61; 6HR MAX TEMP:  90;

THEDFORD       SUNNY     90  59  35 W3        30.20F
$$

NEZ041-046>049-061>064-073>077-083>087-311900-
SOUTH CENTRAL NEBRASKA

CITY           SKY/WX    TMP DP  RH WIND       PRES   REMARKS
GRAND ISLAND   SUNNY     90  67  46 W9        30.16F HX  93
6HR MIN TEMP:  69; 6HR MAX TEMP:  91;

AURORA         SUNNY     87  71  58 SW6       30.16F HX  92
HASTINGS       MOSUNNY   85  71  63 W7        30.18F HX  90
6HR MIN TEMP:  68; 6HR MAX TEMP:  86;

HEBRON         SUNNY     88  64  45 SW6       30.16S
HOLDREGE       SUNNY     88  65  45 SW5       30.20S
KEARNEY *      SUNNY     88  70  55 S8        30.18F HX  92
YORK           SUNNY     88  73  62 W8        30.15F HX  96
$$

NEZ011>018-030>034-042>045-311900-
NORTHEAST NEBRASKA

CITY           SKY/WX    TMP DP  RH WIND       PRES   REMARKS
NORFOLK        SUNNY     88  69  53 VRB5      30.12F HX  92
6HR MIN TEMP:  67; 6HR MAX TEMP:  88;

ALBION         MOSUNNY   90  67  46 W7        30.13F HX  93
BLAIR          MOSUNNY   84  72  65 SW8       30.12F HX  90
COLUMBUS *     SUNNY     88  72  58 CALM      30.12F HX  94
FREMONT        MOSUNNY   88  71  57 W6        30.12F HX  94
TEKAMAH        SUNNY     86  74  67 CALM      30.11F HX  94
6HR MIN TEMP:  66; 6HR MAX TEMP:  87;

WAYNE          SUNNY     83  72  68 E3        30.14S
$$

NEZ050>053-065>068-078-088>093-311900-
SOUTHEAST NEBRASKA

CITY           SKY/WX    TMP DP  RH WIND       PRES   REMARKS
LINCOLN        SUNNY     90  72  55 W9        30.13F HX  97
6HR MIN TEMP:  68; 6HR MAX TEMP:  90;

OMAHA EPPLEY   MOSUNNY   90  71  53 NW9       30.10F HX  96
6HR MIN TEMP:  72; 6HR MAX TEMP:  91;

BEATRICE       SUNNY     86  72  62 SW7       30.14F HX  91
FALLS CITY     SUNNY     86  73  65 NW7       30.13F HX  93
6HR MIN TEMP:  64; 6HR MAX TEMP:  86;

NEBRASKA CITY  SUNNY     85  67  54 W9        30.13F
PLATTSMOUTH    SUNNY     86  72  62 W8        30.13F HX  92
$$

NEZ044-045-051>053-067-311900-
OMAHA AREA

CITY           SKY/WX    TMP DP  RH WIND       PRES   REMARKS
OMAHA EPPLEY   MOSUNNY   90  71  53 NW9       30.10F HX  96
6HR MIN TEMP:  72; 6HR MAX TEMP:  91;

BLAIR          MOSUNNY   84  72  65 SW8       30.12F HX  90
FREMONT        MOSUNNY   88  71  57 W6        30.12F HX  94
MILLARD        SUNNY     88  74  63 W8        30.11F HX  96
OFFUTT AFB     SUNNY     87  73  63 W10       30.10F HX  95
PLATTSMOUTH    SUNNY     86  72  62 W8        30.13F HX  92
WAHOO          FAIR      88  73  60 W8        30.12F HX  95
$$



USA.gov is the U.S. government's official web portal to all federal, state and local government web resources and services.